Time,TemperatureF,DewpointF,PressureIn,WindDirection,WindDirectionDegrees,WindSpeedMPH,WindSpeedGustMPH,Humidity,HourlyPrecipIn,Conditions,Clouds,dailyrainin,SoftwareType,DateUTC
2013-03-18 00:10:00,54.7,52.4,29.64,NE,45,0.0,-999.0,92,-99.99,,,0.00,Acu-Link.com,2013-03-18 04:10:00,
2013-03-18 00:25:00,54.7,52.4,29.64,SSW,202,0.0,-999.0,92,-99.99,,,0.00,Acu-Link.com,2013-03-18 04:25:00,
2013-03-18 00:40:00,54.1,52.4,29.64,WNW,292,0.0,-999.0,94,-99.99,,,0.00,Acu-Link.com,2013-03-18 04:40:00,
2013-03-18 00:55:00,53.6,52.2,29.64,SW,225,0.0,-999.0,95,-99.99,,,0.00,Acu-Link.com,2013-03-18 04:55:00,
2013-03-18 01:10:00,54.5,53.1,29.64,SSW,202,0.0,-999.0,95,-99.99,,,0.00,Acu-Link.com,2013-03-18 05:10:00,
2013-03-18 01:25:00,54.9,53.2,29.63,SSE,157,1.7,-999.0,94,-99.99,,,0.00,Acu-Link.com,2013-03-18 05:25:00,
2013-03-18 01:40:00,54.9,53.8,29.61,WNW,292,0.0,-999.0,96,-99.99,,,0.00,Acu-Link.com,2013-03-18 05:40:00,
2013-03-18 01:56:00,53.8,52.7,29.63,SSW,202,2.2,-999.0,96,-99.99,,,0.00,Acu-Link.com,2013-03-18 05:56:00,
2013-03-18 02:11:00,54.0,53.2,29.63,ESE,112,0.0,-999.0,97,-99.99,,,0.00,Acu-Link.com,2013-03-18 06:11:00,
2013-03-18 02:26:00,56.3,55.5,29.62,South,180,3.7,-999.0,97,-99.99,,,0.00,Acu-Link.com,2013-03-18 06:26:00,
2013-03-18 02:56:00,56.8,55.7,29.63,SW,225,2.7,-999.0,96,-99.99,,,0.00,Acu-Link.com,2013-03-18 06:56:00,
2013-03-18 03:26:00,56.8,56.0,29.63,SSW,202,2.7,-999.0,97,-99.99,,,0.00,Acu-Link.com,2013-03-18 07:26:00,
2013-03-18 03:56:00,60.4,58.7,29.62,SSW,202,6.8,-999.0,94,-99.99,,,0.00,Acu-Link.com,2013-03-18 07:56:00,
2013-03-18 04:12:00,60.3,58.9,29.62,SSW,202,4.2,-999.0,95,-99.99,,,0.00,Acu-Link.com,2013-03-18 08:12:00,
2013-03-18 04:27:00,60.4,59.0,29.62,South,180,3.2,-999.0,95,-99.99,,,0.00,Acu-Link.com,2013-03-18 08:27:00,
2013-03-18 04:42:00,60.6,59.5,29.62,SSW,202,6.3,-999.0,96,-99.99,,,0.00,Acu-Link.com,2013-03-18 08:42:00,
2013-03-18 04:57:00,61.0,59.8,29.61,SSW,202,7.3,-999.0,96,-99.99,,,0.00,Acu-Link.com,2013-03-18 08:57:00,
2013-03-18 05:12:00,61.0,59.8,29.61,SSW,202,5.8,-999.0,96,-99.99,,,0.00,Acu-Link.com,2013-03-18 09:12:00,
2013-03-18 05:27:00,61.0,59.8,29.61,SSW,202,5.8,-999.0,96,-99.99,,,0.00,Acu-Link.com,2013-03-18 09:27:00,
2013-03-18 05:42:00,61.2,60.0,29.62,SSW,202,6.8,-999.0,96,-99.99,,,0.00,Acu-Link.com,2013-03-18 09:42:00,
2013-03-18 05:57:00,61.2,60.0,29.62,South,180,5.3,-999.0,96,-99.99,,,0.00,Acu-Link.com,2013-03-18 09:57:00,
2013-03-18 06:12:00,61.0,59.8,29.62,WSW,247,5.8,-999.0,96,-99.99,,,0.00,Acu-Link.com,2013-03-18 10:12:00,
2013-03-18 06:28:00,61.2,60.0,29.62,SSW,202,6.8,-999.0,96,-99.99,,,0.00,Acu-Link.com,2013-03-18 10:28:00,
2013-03-18 06:43:00,61.2,60.0,29.62,SSW,202,7.8,-999.0,96,-99.99,,,0.00,Acu-Link.com,2013-03-18 10:43:00,
2013-03-18 06:58:00,61.2,60.0,29.61,SW,225,5.8,-999.0,96,-99.99,,,0.00,Acu-Link.com,2013-03-18 10:58:00,
2013-03-18 07:13:00,61.3,60.1,29.62,South,180,6.8,-999.0,96,-99.99,,,0.00,Acu-Link.com,2013-03-18 11:13:00,
2013-03-18 07:28:00,61.2,60.0,29.61,SSW,202,6.8,-999.0,96,-99.99,,,0.00,Acu-Link.com,2013-03-18 11:28:00,
2013-03-18 07:43:00,61.3,60.1,29.62,West,270,4.2,-999.0,96,-99.99,,,0.00,Acu-Link.com,2013-03-18 11:43:00,
2013-03-18 07:58:00,61.3,60.1,29.61,SSW,202,7.3,-999.0,96,-99.99,,,0.00,Acu-Link.com,2013-03-18 11:58:00,
2013-03-18 08:13:00,61.3,60.1,29.61,SW,225,11.9,-999.0,96,-99.99,,,0.00,Acu-Link.com,2013-03-18 12:13:00,
2013-03-18 08:28:00,61.5,59.8,29.60,SW,225,9.4,-999.0,94,-99.99,,,0.00,Acu-Link.com,2013-03-18 12:28:00,
2013-03-18 08:44:00,61.5,59.8,29.60,SSW,202,10.4,-999.0,94,-99.99,,,0.00,Acu-Link.com,2013-03-18 12:44:00,
2013-03-18 08:59:00,61.7,60.0,29.60,SW,225,14.5,-999.0,94,-99.99,,,0.00,Acu-Link.com,2013-03-18 12:59:00,
2013-03-18 09:14:00,61.9,60.2,29.59,South,180,14.0,-999.0,94,-99.99,,,0.00,Acu-Link.com,2013-03-18 13:14:00,
2013-03-18 09:29:00,62.1,59.7,29.59,South,180,6.3,-999.0,92,-99.99,,,0.00,Acu-Link.com,2013-03-18 13:29:00,
2013-03-18 09:44:00,62.4,59.7,29.60,SSW,202,9.9,-999.0,91,-99.99,,,0.00,Acu-Link.com,2013-03-18 13:44:00,
2013-03-18 09:59:00,63.0,60.0,29.60,SW,225,11.4,-999.0,90,-99.99,,,0.00,Acu-Link.com,2013-03-18 13:59:00,
2013-03-18 10:14:00,62.4,60.0,29.59,SSW,202,9.4,-999.0,92,-99.99,,,0.00,Acu-Link.com,2013-03-18 14:14:00,
2013-03-18 10:29:00,61.5,60.1,29.59,SSW,202,11.9,-999.0,95,-99.99,,,0.00,Acu-Link.com,2013-03-18 14:29:00,
2013-03-18 10:44:00,61.5,60.3,29.59,SW,225,8.9,-999.0,96,-99.99,,,0.01,Acu-Link.com,2013-03-18 14:44:00,
2013-03-18 11:00:00,61.9,60.2,29.59,SSW,202,11.4,-999.0,94,-99.99,,,0.01,Acu-Link.com,2013-03-18 15:00:00,
2013-03-18 11:15:00,61.7,60.0,29.59,SW,225,12.5,-999.0,94,-99.99,,,0.01,Acu-Link.com,2013-03-18 15:15:00,
2013-03-18 11:30:00,61.3,59.9,29.59,SSW,202,9.4,-999.0,95,-99.99,,,0.01,Acu-Link.com,2013-03-18 15:30:00,
2013-03-18 11:46:00,61.3,59.9,29.58,South,180,10.4,-999.0,95,-99.99,,,0.01,Acu-Link.com,2013-03-18 15:46:00,
2013-03-18 12:16:00,58.3,56.9,29.59,SSW,202,5.3,-999.0,95,-99.99,,,0.01,Acu-Link.com,2013-03-18 16:16:00,
2013-03-18 12:33:00,57.9,56.2,29.58,South,180,8.9,-999.0,94,-99.99,,,0.01,Acu-Link.com,2013-03-18 16:33:00,
2013-03-18 12:48:00,57.7,56.0,29.58,South,180,7.3,-999.0,94,-99.99,,,0.01,Acu-Link.com,2013-03-18 16:48:00,
2013-03-18 13:03:00,57.4,56.0,29.58,West,270,6.3,-999.0,95,-99.99,,,0.01,Acu-Link.com,2013-03-18 17:03:00,
2013-03-18 13:18:00,55.9,55.3,29.58,South,180,6.8,-999.0,98,-99.99,,,0.01,Acu-Link.com,2013-03-18 17:18:00,
2013-03-18 13:33:00,55.8,55.2,29.57,SSE,157,9.9,-999.0,98,-99.99,,,0.01,Acu-Link.com,2013-03-18 17:33:00,
2013-03-18 13:49:00,55.9,55.3,29.57,SSW,202,3.2,-999.0,98,-99.99,,,0.01,Acu-Link.com,2013-03-18 17:49:00,
2013-03-18 14:04:00,55.8,55.2,29.56,SSW,202,2.7,-999.0,98,-99.99,,,0.01,Acu-Link.com,2013-03-18 18:04:00,
2013-03-18 14:19:00,55.6,55.0,29.56,SSW,202,6.8,-999.0,98,-99.99,,,0.01,Acu-Link.com,2013-03-18 18:19:00,
2013-03-18 14:34:00,55.0,54.4,29.55,South,180,5.8,-999.0,98,-99.99,,,0.06,Acu-Link.com,2013-03-18 18:34:00,
2013-03-18 14:49:00,55.0,54.4,29.54,SSW,202,8.9,-999.0,98,-99.99,,,0.07,Acu-Link.com,2013-03-18 18:49:00,
2013-03-18 15:04:00,55.2,54.6,29.54,SW,225,6.3,-999.0,98,-99.99,,,0.07,Acu-Link.com,2013-03-18 19:04:00,
2013-03-18 15:20:00,55.6,55.0,29.53,SW,225,9.4,-999.0,98,-99.99,,,0.07,Acu-Link.com,2013-03-18 19:20:00,
2013-03-18 15:35:00,55.9,55.3,29.52,SSW,202,3.7,-999.0,98,-99.99,,,0.08,Acu-Link.com,2013-03-18 19:35:00,
2013-03-18 15:50:00,55.9,55.3,29.53,SSW,202,4.7,-999.0,98,-99.99,,,0.08,Acu-Link.com,2013-03-18 19:50:00,
2013-03-18 16:05:00,56.5,55.9,29.54,SSW,202,0.0,-999.0,98,-99.99,,,0.08,Acu-Link.com,2013-03-18 20:05:00,
2013-03-18 16:20:00,56.5,55.9,29.54,SSE,157,3.7,-999.0,98,-99.99,,,0.11,Acu-Link.com,2013-03-18 20:20:00,
2013-03-18 16:35:00,56.5,55.9,29.55,West,270,0.0,-999.0,98,-99.99,,,0.13,Acu-Link.com,2013-03-18 20:35:00,
2013-03-18 16:50:00,56.1,55.5,29.54,South,180,0.0,-999.0,98,-99.99,,,0.27,Acu-Link.com,2013-03-18 20:50:00,
2013-03-18 17:05:00,55.8,55.2,29.55,WNW,292,1.7,-999.0,98,-99.99,,,0.38,Acu-Link.com,2013-03-18 21:05:00,
2013-03-18 17:20:00,55.8,55.2,29.56,ENE,67,1.1,-999.0,98,-99.99,,,0.62,Acu-Link.com,2013-03-18 21:20:00,
2013-03-18 17:36:00,55.8,55.2,29.56,SSW,202,5.8,-999.0,98,-99.99,,,0.76,Acu-Link.com,2013-03-18 21:36:00,
2013-03-18 17:51:00,55.8,55.2,29.61,SE,135,1.1,-999.0,98,-99.99,,,0.82,Acu-Link.com,2013-03-18 21:51:00,
2013-03-18 18:36:00,56.8,56.2,29.51,South,180,3.7,-999.0,98,-99.99,,,0.99,Acu-Link.com,2013-03-18 22:36:00,
2013-03-18 18:51:00,56.8,56.2,29.50,South,180,0.0,-999.0,98,-99.99,,,0.99,Acu-Link.com,2013-03-18 22:51:00,
2013-03-18 19:06:00,57.2,56.6,29.51,West,270,0.0,-999.0,98,-99.99,,,0.99,Acu-Link.com,2013-03-18 23:06:00,
2013-03-18 19:21:00,57.0,56.4,29.50,SSE,157,0.0,-999.0,98,-99.99,,,0.99,Acu-Link.com,2013-03-18 23:21:00,
2013-03-18 19:52:00,55.8,55.2,29.52,WSW,247,0.0,-999.0,98,-99.99,,,0.99,Acu-Link.com,2013-03-18 23:52:00,
2013-03-18 20:07:00,55.2,54.6,29.51,South,180,0.0,-999.0,98,-99.99,,,0.99,Acu-Link.com,2013-03-19 00:07:00,
2013-03-18 20:22:00,54.7,54.1,29.52,WNW,292,0.0,-999.0,98,-99.99,,,0.99,Acu-Link.com,2013-03-19 00:22:00,
2013-03-18 20:37:00,54.1,53.5,29.53,WNW,292,0.0,-999.0,98,-99.99,,,0.99,Acu-Link.com,2013-03-19 00:37:00,
2013-03-18 20:52:00,54.1,53.5,29.53,North,0,0.0,-999.0,98,-99.99,,,0.99,Acu-Link.com,2013-03-19 00:52:00,
2013-03-18 21:07:00,53.1,52.5,29.53,ESE,112,0.0,-999.0,98,-99.99,,,0.99,Acu-Link.com,2013-03-19 01:07:00,
2013-03-18 21:23:00,52.7,52.2,29.53,WNW,292,0.0,-999.0,98,-99.99,,,0.99,Acu-Link.com,2013-03-19 01:23:00,
2013-03-18 21:38:00,52.0,51.5,29.54,West,270,0.0,-999.0,98,-99.99,,,0.99,Acu-Link.com,2013-03-19 01:38:00,
2013-03-18 21:53:00,51.4,50.9,29.56,ENE,67,0.0,-999.0,98,-99.99,,,0.99,Acu-Link.com,2013-03-19 01:53:00,
2013-03-18 22:08:00,51.3,50.8,29.56,South,180,0.0,-999.0,98,-99.99,,,0.99,Acu-Link.com,2013-03-19 02:08:00,
2013-03-18 22:23:00,51.6,51.1,29.57,SSW,202,2.2,-999.0,98,-99.99,,,0.99,Acu-Link.com,2013-03-19 02:23:00,
2013-03-18 22:38:00,51.6,51.1,29.58,WNW,292,0.0,-999.0,98,-99.99,,,0.99,Acu-Link.com,2013-03-19 02:38:00,
2013-03-18 22:53:00,51.8,51.3,29.59,ENE,67,0.0,-999.0,98,-99.99,,,0.99,Acu-Link.com,2013-03-19 02:53:00,
2013-03-18 23:08:00,53.1,52.5,29.59,SSW,202,3.2,-999.0,98,-99.99,,,0.99,Acu-Link.com,2013-03-19 03:08:00,
2013-03-18 23:23:00,54.1,53.5,29.61,SW,225,3.7,-999.0,98,-99.99,,,0.99,Acu-Link.com,2013-03-19 03:23:00,
2013-03-18 23:39:00,54.5,53.9,29.61,SSW,202,3.2,-999.0,98,-99.99,,,0.99,Acu-Link.com,2013-03-19 03:39:00,
2013-03-18 23:54:00,54.5,53.9,29.62,SSW,202,2.7,-999.0,98,-99.99,,,0.99,Acu-Link.com,2013-03-19 03:54:00,